Theta_e
303 302 299 300 298 298 296 297 296 298 297 297 298 299 298 300 302 302 301 303 300 299 300 299 298 298 299 300 301 302 302 303 306 308 308 309 309 310 312 314 318 323 327 329 332 335 336 337 336 337 335 334 334 333 332 330 330 330 331 331 331 332 332 331 330 331 332 331 331 331 328 329 335 338 339 339 340 340 340 340 337 337 336 336 339
304 300 300 300 297 296 297 297 297 297 297 298 299 298 299 299 301 301 302 301 301 301 299 298 297 297 299 298 301 301 302 303 305 306 307 308 309 308 311 313 315 320 324 327 329 332 336 336 336 337 336 335 335 336 334 333 331 330 331 331 332 332 332 332 332 331 332 332 331 332 331 330 334 338 338 339 340 340 340 340 337 336 337 337 338
304 302 300 299 298 297 297 297 296 296 298 299 297 299 299 301 304 303 302 301 298 298 298 297 296 297 297 297 299 300 302 304 305 305 306 307 307 307 307 311 313 316 320 324 325 329 333 335 335 337 336 337 336 336 337 335 334 332 331 332 333 333 334 334 333 332 332 332 331 331 331 330 333 337 338 339 340 340 340 340 338 337 337 338 339
305 302 301 299 298 297 297 297 298 297 297 297 296 298 299 301 301 300 300 300 298 296 297 297 295 295 295 296 298 302 304 304 304 305 306 305 305 305 306 307 310 314 317 320 323 326 330 333 334 335 336 336 337 337 336 336 335 334 333 332 333 333 334 335 334 332 332 333 331 330 330 332 336 338 339 340 340 339 339 339 338 337 337 337 338
304 304 304 299 298 298 297 298 299 298 296 296 296 297 299 301 301 300 299 298 298 296 297 296 295 295 294 296 297 301 305 304 304 304 304 305 305 305 304 306 308 311 314 317 319 323 327 330 334 335 337 337 336 337 336 336 335 335 334 334 334 334 334 334 335 332 332 332 331 329 330 335 337 338 339 339 339 339 339 339 338 337 338 337 337
305 302 302 300 299 298 298 298 297 296 296 296 298 300 301 301 300 300 302 298 296 295 295 295 294 294 294 295 295 299 303 303 303 303 304 304 304 303 304 305 307 308 309 314 316 318 323 327 331 334 336 336 336 337 336 334 333 334 335 335 336 336 336 336 334 333 331 330 331 330 330 334 338 338 338 339 339 339 338 338 337 338 338 338 338
305 304 301 300 299 298 297 298 298 297 296 297 299 301 302 301 301 299 295 296 295 296 294 293 293 294 293 295 294 297 303 302 302 302 303 304 303 302 304 305 306 307 308 309 312 314 318 323 326 329 333 335 336 336 337 334 334 334 335 334 335 333 333 334 333 332 332 330 331 333 332 335 337 337 338 338 338 338 337 337 337 337 338 339 338
305 304 302 300 300 298 298 298 297 297 297 296 299 302 300 301 299 300 298 294 295 293 293 293 293 293 292 293 293 296 301 302 301 301 302 303 302 302 303 305 305 306 307 308 309 311 317 319 322 325 327 331 333 335 336 336 335 335 335 335 335 334 332 333 332 330 330 331 334 334 334 337 337 338 338 338 337 337 336 336 335 336 336 338 338
305 304 304 301 299 299 297 298 297 297 297 296 299 302 302 301 298 298 299 296 294 293 293 292 292 292 291 291 291 295 298 299 300 300 300 301 302 301 302 303 305 306 306 307 308 309 313 316 318 320 321 325 330 332 334 336 336 334 334 334 335 335 334 333 334 335 335 335 335 336 337 337 337 338 338 337 337 336 336 335 335 335 335 335 337
304 303 303 302 300 299 298 297 297 297 297 297 299 300 301 303 299 296 296 297 294 295 292 292 292 292 290 291 291 292 293 297 300 300 298 299 301 301 301 301 304 305 305 306 306 308 309 312 316 316 317 320 324 331 334 333 335 335 335 335 334 333 333 334 335 334 335 336 336 336 336 336 337 337 336 336 336 336 335 335 335 335 334 335 336
304 303 303 301 299 298 298 297 298 297 297 297 298 299 301 300 301 295 293 294 295 295 294 293 291 291 292 290 290 290 291 294 297 297 297 298 299 301 301 301 302 303 304 304 305 306 308 309 310 310 311 315 319 325 330 331 334 335 334 334 335 336 335 334 335 335 335 334 335 335 335 335 335 335 335 335 335 335 336 336 335 335 335 335 336
303 303 303 301 299 298 298 296 297 297 297 297 296 298 301 300 299 297 294 293 293 293 293 293 289 289 291 291 289 289 290 293 291 293 295 296 297 299 299 300 299 300 302 302 304 305 306 307 309 310 310 311 315 318 322 326 332 335 336 336 336 336 336 335 335 334 334 334 334 334 334 334 334 334 335 335 335 335 335 335 336 335 335 336 335
303 302 302 302 300 297 297 296 297 298 298 298 297 298 301 302 300 296 296 293 292 291 291 292 293 294 289 289 290 287 291 292 289 290 291 293 294 297 298 299 297 297 300 301 304 303 304 304 307 308 308 308 312 315 318 322 327 334 335 335 335 335 334 334 333 333 333 333 333 333 333 333 333 333 333 334 334 334 335 335 334 335 335 335 335
303 302 302 301 299 297 297 297 296 297 298 298 295 298 299 299 299 296 295 296 294 293 293 294 292 291 291 287 286 287 289 290 289 289 289 292 292 293 296 295 295 295 297 300 302 302 302 303 305 306 307 307 308 310 314 318 323 329 331 333 334 334 334 333 333 333 333 333 333 333 333 333 333 333 333 333 333 333 334 334 334 335 335 334 334
302 302 301 300 299 298 298 297 297 298 297 296 295 295 298 300 300 302 295 292 291 292 293 292 290 286 287 288 285 287 288 289 288 288 288 289 290 291 294 293 293 293 295 298 300 299 301 301 303 304 305 305 305 306 310 315 322 325 330 331 332 335 335 334 334 333 333 332 332 332 332 332 332 332 333 333 333 333 334 334 334 334 335 335 334
302 301 301 300 299 299 298 297 297 298 298 297 295 295 297 299 300 300 299 295 292 294 293 289 288 291 292 288 285 286 288 287 283 287 285 287 289 289 290 291 291 292 293 295 297 297 298 300 301 303 303 304 303 304 306 311 318 321 326 330 331 332 333 335 333 333 334 333 332 333 333 332 332 332 332 333 332 333 333 333 334 334 333 334 334
301 301 301 300 299 299 298 298 297 297 298 297 296 296 297 299 300 301 300 301 295 291 293 291 289 290 290 287 287 288 287 285 283 286 288 292 291 287 289 289 290 291 291 294 295 297 297 298 298 300 301 302 301 302 305 306 311 313 319 329 332 331 331 332 332 332 332 333 332 332 332 333 333 333 334 333 333 333 333 333 333 333 333 333 334
301 301 301 300 299 298 298 297 297 297 298 298 297 295 296 298 300 302 300 299 299 292 293 291 292 291 287 290 291 289 289 287 287 289 284 286 286 286 287 286 286 288 290 292 292 294 295 296 297 298 299 300 300 301 302 303 308 312 319 326 332 333 333 333 332 333 333 332 331 331 331 332 333 332 333 333 333 333 333 332 332 333 333 333 333
301 301 301 300 299 298 298 298 298 297 298 297 296 296 297 299 300 301 302 300 297 296 296 295 291 291 290 289 290 290 288 289 289 285 288 287 286 287 292 287 286 287 290 290 290 290 293 294 296 297 298 299 299 299 299 300 306 311 318 326 331 331 332 333 333 333 333 333 332 331 331 331 331 332 332 333 333 333 333 332 333 333 333 332 332
300 300 300 300 299 298 298 298 297 297 298 297 297 296 297 297 300 301 300 301 300 301 296 293 296 294 292 291 290 286 287 288 285 291 287 287 288 284 285 287 286 288 288 289 290 289 289 291 292 295 296 299 298 298 297 299 301 302 308 320 329 331 330 331 332 333 332 332 332 331 331 331 331 331 331 331 332 332 332 332 332 332 332 332 333
299 299 299 299 300 299 297 297 297 297 298 297 296 296 297 298 298 299 299 299 300 300 297 296 295 295 291 290 289 290 288 286 286 285 288 288 286 285 287 283 287 288 288 286 286 287 288 288 289 292 294 297 297 297 297 298 299 299 307 315 325 330 330 330 330 331 332 332 332 331 331 331 331 331 331 330 330 329 330 331 331 332 332 332 333
298 298 299 299 299 299 298 297 297 297 298 297 296 296 296 298 299 300 300 299 298 299 300 298 296 294 295 293 293 289 290 290 289 288 287 288 289 286 282 286 289 287 283 286 287 287 287 287 288 289 291 294 295 296 296 297 297 298 301 308 317 325 330 330 330 331 331 331 331 331 330 331 330 331 330 330 330 330 330 330 330 330 331 332 332
297 298 299 299 299 298 298 297 297 298 298 297 296 296 296 297 298 299 299 300 299 298 297 294 296 295 293 294 295 295 294 293 292 288 290 288 289 288 284 283 285 286 287 285 287 288 287 286 287 289 289 292 293 294 295 296 296 297 297 302 309 318 327 329 329 330 330 330 330 329 329 330 330 330 330 330 330 330 330 330 330 330 329 330 331
297 297 297 297 298 297 297 297 297 297 297 297 297 297 296 296 297 299 299 299 298 298 297 296 294 295 294 294 294 295 293 294 293 293 292 290 290 288 286 283 284 286 286 285 285 284 286 289 289 289 289 288 290 292 293 293 294 296 296 301 305 313 321 329 329 330 330 330 329 329 329 329 329 330 330 330 330 331 330 330 330 331 331 330 330
295 296 297 297 298 297 296 296 297 297 297 296 296 296 296 296 297 298 299 299 299 299 298 298 296 296 296 294 294 294 295 292 292 292 291 289 289 289 284 284 289 284 280 283 287 284 286 289 292 290 289 289 289 289 289 290 290 294 295 299 302 307 316 325 328 329 329 328 328 327 327 328 328 329 329 329 330 330 330 330 330 330 331 331 331
297 297 298 298 298 298 298 298 297 296 296 296 296 296 295 296 296 297 298 299 298 298 299 298 296 297 295 294 294 295 295 294 294 291 291 290 288 289 286 284 283 285 281 282 281 287 290 287 286 289 287 288 289 288 288 289 290 293 294 295 298 302 308 316 322 327 327 326 325 325 325 325 327 328 328 329 329 329 330 330 330 330 331 330 330
298 298 298 298 298 298 297 297 296 296 296 296 296 295 295 295 296 296 297 297 298 299 298 297 297 296 294 296 296 294 295 293 292 293 293 293 292 288 290 291 287 282 284 280 280 285 292 285 283 286 290 291 290 289 290 289 291 293 294 295 294 300 305 313 318 323 327 326 325 324 325 325 326 327 327 328 328 328 328 328 328 330 330 330 330
298 297 297 298 298 297 297 297 296 296 296 296 295 295 294 295 294 295 296 296 297 297 298 297 298 297 296 294 293 295 295 294 294 294 293 293 294 289 291 290 290 289 282 285 282 284 283 287 285 285 288 290 291 289 292 291 289 293 294 292 293 294 300 307 312 317 321 324 326 325 324 325 326 326 326 327 327 327 327 327 327 329 329 330 330
297 297 297 297 298 298 297 297 296 296 295 296 296 295 294 295 295 294 295 295 297 297 297 297 298 297 296 295 296 296 295 293 293 293 294 291 293 291 292 294 291 289 286 283 282 284 286 285 289 289 286 286 289 288 288 288 291 292 289 290 290 291 297 302 307 311 314 316 319 324 324 325 325 326 326 325 325 326 327 326 327 328 329 330 329
298 297 297 297 297 297 297 297 296 296 296 295 295 295 294 294 295 295 295 295 295 295 296 297 297 296 296 294 294 295 294 293 294 293 292 293 291 292 292 291 293 293 290 289 289 284 284 283 286 287 285 285 285 287 287 290 293 292 289 289 290 291 297 299 302 306 309 311 314 319 324 324 326 326 325 325 325 325 326 327 327 327 328 328 328
296 296 296 296 296 297 297 297 296 296 295 295 295 295 294 294 294 294 293 293 294 295 295 295 296 295 295 295 294 295 294 294 293 293 292 292 292 291 290 291 291 293 292 288 287 288 287 288 286 287 286 284 283 285 286 288 291 291 289 289 289 292 295 295 298 301 305 308 311 313 317 323 324 325 326 325 325 325 325 325 325 325 326 327 327
296 296 296 296 296 296 296 297 296 295 295 295 295 295 294 295 294 294 293 293 293 294 294 294 295 295 295 295 295 296 294 291 292 291 292 292 292 291 291 291 290 291 291 291 290 294 286 286 285 284 282 284 283 286 288 288 288 295 288 289 288 293 292 294 297 299 302 305 307 309 311 315 319 322 325 326 326 325 325 325 325 325 325 326 326
296 295 296 296 296 296 296 296 296 296 295 295 295 294 294 294 294 294 293 293 293 293 294 293 292 293 294 295 295 295 292 293 293 292 291 291 291 291 291 290 290 290 291 290 290 291 291 284 284 286 283 284 286 284 287 287 288 288 293 288 287 289 291 293 294 297 299 302 304 305 307 309 311 313 316 319 322 324 324 325 324 324 324 322 320
295 296 296 296 296 296 296 296 296 296 296 296 295 295 294 294 294 294 294 293 293 293 292 293 292 293 293 293 294 293 292 294 293 292 292 291 290 290 290 291 291 291 290 291 290 290 292 287 289 284 284 284 287 282 287 287 289 287 289 290 288 289 291 292 292 294 297 299 301 303 305 306 306 307 308 310 314 317 320 320 318 316 316 316 316
294 296 296 296 296 296 296 296 296 296 296 295 295 295 295 295 294 294 294 293 293 293 292 292 292 292 292 292 293 292 290 292 292 293 290 291 290 291 291 290 291 291 290 291 290 290 290 290 289 290 286 284 288 288 283 284 285 286 287 289 291 289 288 289 291 290 296 298 300 302 304 305 305 305 306 306 307 307 308 310 311 312 312 313 314
294 294 295 295 295 295 295 295 295 296 295 295 294 294 295 295 294 294 294 293 293 293 293 293 292 291 292 292 292 291 290 292 291 290 290 290 291 291 291 291 291 291 290 289 291 292 291 290 286 290 285 284 285 284 283 283 284 284 285 286 285 287 288 287 288 290 293 297 299 299 301 302 303 304 305 305 306 306 306 306 307 308 308 309 310
293 293 292 293 294 294 295 294 294 295 295 295 294 294 294 294 295 295 294 294 294 293 293 293 293 292 292 292 292 291 290 291 290 289 289 290 291 291 291 291 291 291 289 290 290 289 290 290 290 284 282 283 283 282 282 285 285 284 282 284 285 285 284 285 286 290 293 295 296 297 298 299 300 301 302 303 304 305 305 304 304 304 304 305 305
292 292 293 292 294 294 294 294 294 294 294 294 295 294 294 294 294 294 294 293 293 293 292 292 292 292 292 292 291 291 291 291 292 291 290 290 289 290 290 290 291 289 288 288 288 288 288 290 289 290 286 289 289 286 281 283 284 285 286 286 283 283 284 286 287 287 286 288 290 293 295 297 298 299 300 301 302 303 304 303 303 302 301 302 303
292 291 291 292 292 293 293 293 293 294 294 293 294 293 293 293 293 293 292 292 292 292 292 292 292 292 292 291 291 290 291 291 292 291 290 289 289 289 290 290 289 287 288 288 287 287 287 288 289 288 288 285 285 290 283 281 282 283 285 286 287 285 283 285 287 286 286 288 290 293 293 294 294 295 298 299 300 301 301 302 302 301 300 302 303
291 291 291 292 291 291 292 292 293 292 292 292 292 292 292 292 292 292 292 292 291 290 290 290 291 291 291 291 291 291 291 291 291 291 290 290 289 289 289 289 287 288 288 287 286 287 287 286 287 288 287 287 283 283 280 281 284 284 283 284 286 288 288 283 284 286 284 286 288 288 290 291 292 293 296 297 298 299 299 300 300 300 299 300 302
290 290 291 291 290 289 288 289 290 289 291 291 292 292 292 291 291 292 292 291 291 290 290 289 289 289 289 288 289 289 290 291 291 291 291 291 290 289 287 287 287 287 287 287 287 286 286 286 287 286 285 286 286 286 284 284 286 289 285 282 284 285 285 284 286 284 285 285 285 286 287 288 289 289 290 291 293 296 296 297 298 298 298 300 301
287 286 287 287 289 289 289 287 287 287 289 290 290 292 293 292 291 291 290 290 290 289 288 287 286 286 287 287 288 290 289 289 290 290 291 291 292 291 290 287 287 286 286 286 286 286 286 286 286 286 285 286 287 286 286 286 285 284 284 282 283 285 284 284 285 285 285 283 284 286 287 287 287 288 288 290 293 292 294 295 297 298 299 301 301
286 285 286 287 286 287 288 288 287 287 288 290 291 294 294 294 291 290 290 289 288 288 287 287 287 285 285 286 286 287 288 288 288 289 291 291 291 291 292 290 290 289 286 286 286 285 285 285 286 285 285 286 287 286 285 286 284 285 284 285 285 284 285 285 287 285 282 285 284 283 286 286 286 287 288 289 290 290 292 293 296 297 298 300 301
284 284 285 286 286 285 285 286 286 286 286 290 293 294 294 294 292 290 289 288 287 287 286 286 285 285 284 284 284 284 285 286 286 286 288 290 290 291 291 291 291 291 292 289 288 285 285 285 285 285 285 286 287 285 285 284 286 284 283 284 284 284 284 284 283 285 284 284 284 282 285 284 284 286 286 288 289 290 292 294 297 298 299 299 300
284 285 285 284 284 284 285 285 284 283 284 291 293 293 294 294 294 290 287 286 286 285 285 285 285 284 283 283 283 282 284 286 286 284 285 285 288 290 290 290 290 291 292 293 292 290 288 286 286 286 286 286 286 286 285 283 284 286 283 282 282 283 284 285 285 286 286 283 283 282 284 285 283 284 285 287 288 289 290 293 296 297 298 299 299
286 284 284 285 284 284 284 284 283 283 283 290 292 293 293 293 294 290 285 285 284 284 284 284 283 283 283 283 283 283 283 283 284 284 284 283 284 284 284 284 283 285 289 290 291 290 289 288 287 287 287 286 288 287 286 285 285 286 286 286 283 283 283 284 286 286 282 282 285 284 285 283 283 285 285 285 287 288 289 292 295 297 297 298 298
284 283 283 283 284 284 284 284 284 284 285 291 292 292 293 293 294 289 284 284 283 282 282 282 282 282 282 283 282 282 282 282 281 282 282 283 283 282 283 282 282 282 282 282 283 284 286 288 287 288 288 287 287 287 286 285 287 289 290 289 288 287 286 285 283 283 284 282 283 283 283 284 281 284 286 285 285 287 287 291 294 296 297 297 297
284 284 284 284 284 284 284 283 284 284 285 290 290 291 292 292 289 284 284 283 282 282 282 282 282 281 281 280 281 281 281 282 283 287 285 281 282 282 282 281 281 280 281 284 287 288 286 286 286 287 288 288 290 288 287 287 286 287 287 287 286 286 285 285 286 282 283 283 285 286 284 285 281 284 285 285 285 286 286 285 290 294 295 296 297
284 283 284 283 284 283 283 282 282 282 283 286 288 288 289 289 284 283 284 283 283 282 282 282 282 282 282 283 284 284 283 283 285 288 289 287 284 283 283 283 284 284 285 285 287 289 290 290 290 291 291 292 293 293 293 293 290 288 287 286 286 287 286 286 287 287 286 282 282 285 285 285 283 283 284 281 284 286 286 285 286 291 294 295 296
283 282 282 281 281 281 281 281 282 282 282 285 287 286 285 285 284 283 283 282 283 283 283 284 284 284 284 284 284 283 283 283 286 288 289 287 284 285 285 285 285 285 285 285 285 285 288 289 289 290 290 291 292 292 293 293 293 291 287 286 287 287 286 286 286 287 287 283 282 285 283 285 281 281 283 278 276 279 282 283 286 287 291 293 294
281 280 279 279 278 279 279 280 281 281 281 283 286 286 285 284 282 282 282 282 282 283 283 284 283 283 282 283 283 284 283 285 289 289 289 285 281 282 282 283 284 284 284 283 283 282 282 283 282 283 284 286 286 287 287 289 290 289 289 288 288 287 286 286 286 286 285 287 284 285 284 286 285 282 283 281 284 287 282 283 284 285 285 287 287
Wind_Speed
7 6 5 6 4 4 4 4 3 4 2 2 3 3 2 1 1 2 3 4 4 3 1 2 2 2 3 3 3 4 4 4 4 5 5 5 5 7 14 16 17 19 20 21 21 23 24 21 19 16 14 9 7 5 5 4 3 3 3 2 2 5 6 5 5 6 6 6 4 7 11 12 10 7 9 11 10 10 10 11 12 14 17 14 15
7 6 6 6 4 4 4 4 5 3 3 3 4 3 3 1 2 3 4 4 3 1 1 2 2 2 3 3 3 4 4 4 4 5 5 5 5 6 12 15 16 18 19 21 21 22 24 23 21 17 17 11 8 7 6 5 4 2 2 1 2 3 4 5 4 4 4 4 4 7 10 8 8 10 11 10 10 12 12 13 14 15 14 14 17
7 6 6 6 5 4 5 4 4 4 4 4 2 4 3 3 4 5 5 4 3 1 1 3 2 3 3 3 4 4 4 4 4 5 5 5 5 5 8 14 16 16 17 20 21 21 22 24 22 20 18 16 11 9 8 6 4 4 2 3 3 4 4 4 5 5 4 4 3 3 7 4 8 8 8 10 12 12 12 13 13 14 13 13 15
7 6 6 6 5 6 4 4 6 3 4 4 3 2 2 1 2 3 3 4 4 2 1 3 2 2 3 3 3 4 4 4 4 5 5 5 5 6 6 8 12 16 16 17 20 21 21 23 24 22 17 16 15 14 12 8 6 3 2 2 3 4 4 3 4 5 4 4 3 4 4 5 9 7 8 10 11 11 12 14 14 14 15 16 16
7 7 7 6 6 5 5 5 5 4 3 4 3 2 3 4 3 3 4 4 3 2 2 3 3 3 2 3 3 4 4 4 4 5 5 5 5 6 6 7 8 12 16 16 18 20 21 22 23 24 21 18 17 16 14 13 10 6 3 3 3 2 1 2 4 6 4 5 3 2 1 8 7 8 10 10 10 12 12 13 13 15 17 18 17
7 6 6 6 6 6 6 6 5 4 3 3 4 4 4 4 4 5 3 4 4 1 2 2 2 1 2 3 3 3 3 3 4 5 4 5 5 5 6 6 7 7 8 14 16 17 20 21 21 23 24 21 19 17 16 13 14 11 5 5 5 6 5 7 7 6 7 7 5 8 9 7 8 9 10 10 12 13 15 17 17 15 16 17 20
7 8 7 6 6 6 6 6 5 4 4 4 5 4 5 5 5 5 3 3 3 2 2 2 1 2 3 3 3 4 3 3 4 4 5 5 5 5 6 6 5 6 7 7 11 16 18 20 20 21 23 22 19 19 17 17 14 12 10 7 9 9 8 6 8 7 8 8 6 7 7 7 10 11 12 13 14 16 17 17 15 12 12 20 25
8 7 7 7 7 6 7 5 5 5 5 4 4 5 5 5 4 6 5 2 3 2 1 2 1 1 2 3 3 3 4 4 4 5 4 4 5 5 5 6 6 7 7 7 7 10 19 19 20 20 21 21 19 16 16 16 14 14 14 11 10 9 9 8 10 11 10 10 11 15 12 12 11 11 13 14 17 18 18 19 17 13 16 19 23
8 8 8 7 7 6 6 6 5 6 5 5 6 6 5 5 4 2 4 5 4 3 2 2 1 1 2 2 2 3 3 4 4 5 5 4 5 5 6 6 6 7 6 7 7 7 13 18 17 18 19 19 20 20 18 15 14 13 13 13 11 12 10 10 9 14 15 15 15 13 12 11 11 11 12 14 16 17 18 17 15 15 15 14 15
9 8 8 7 7 7 6 6 6 6 6 5 6 5 5 6 5 1 3 5 5 5 3 1 1 1 2 2 3 3 2 4 4 4 4 4 5 6 5 5 5 6 6 6 7 7 7 12 18 17 18 19 18 19 20 18 18 16 15 15 16 15 13 14 17 16 16 16 14 14 13 12 12 14 15 15 17 17 17 17 16 16 15 14 13
9 9 8 7 7 7 7 6 6 6 6 6 5 5 5 4 6 3 2 2 5 4 5 4 2 1 1 2 2 2 3 2 3 4 3 3 3 4 4 5 5 5 7 6 6 6 8 7 8 8 10 18 16 18 19 19 18 17 16 17 17 16 16 16 18 19 17 15 15 14 14 14 15 16 16 16 17 18 16 16 16 16 16 16 16
9 9 8 8 7 7 7 6 6 7 7 6 6 6 7 5 5 5 4 3 3 3 4 4 2 1 1 3 2 2 2 2 3 3 3 3 3 3 4 4 5 5 6 6 6 6 6 7 7 7 8 11 16 16 16 18 17 17 16 16 17 17 18 18 17 17 17 16 16 16 14 14 14 16 16 17 17 16 16 16 16 17 17 15 16
9 9 9 8 7 6 7 6 6 7 7 8 7 7 7 6 6 4 6 3 1 2 2 4 3 1 2 3 4 2 2 1 3 3 3 4 2 3 4 4 5 5 5 4 6 6 6 6 6 7 7 7 9 13 15 15 15 15 16 15 16 17 18 18 16 15 15 16 15 15 15 15 14 13 15 16 17 17 16 16 16 16 16 17 17
8 8 8 8 8 7 7 8 7 7 7 6 6 6 6 5 6 3 0 4 4 5 5 4 0 1 1 4 3 4 1 1 2 2 3 3 3 2 3 3 5 5 4 4 5 6 6 6 6 6 7 7 7 7 8 9 10 13 13 15 13 14 15 15 15 15 15 14 14 14 13 13 13 13 13 13 14 14 14 15 15 15 15 16 18
9 9 8 8 9 8 8 7 8 7 7 6 6 7 7 8 8 7 4 0 2 3 5 3 3 2 1 1 2 4 2 1 2 3 2 2 2 2 2 3 4 4 4 4 5 6 6 5 6 6 7 7 6 6 6 7 9 12 11 10 11 12 13 14 13 14 13 13 13 13 13 13 13 12 13 12 12 12 13 13 15 15 14 15 15
9 9 8 8 9 9 7 7 8 7 9 8 7 8 7 6 7 6 6 4 2 4 4 3 4 6 1 2 1 1 4 0 3 5 2 3 1 2 2 2 3 5 4 5 5 4 4 5 7 6 6 7 6 6 6 6 10 10 11 10 11 14 11 11 14 13 13 12 11 11 11 12 12 12 12 12 12 12 12 12 13 13 14 14 16
8 9 9 10 9 8 8 8 8 8 7 8 8 9 9 8 9 7 8 7 6 3 4 4 3 0 4 2 1 1 3 2 2 3 1 1 1 2 3 2 3 3 4 4 4 4 3 7 6 7 8 8 8 6 6 7 7 6 8 7 10 12 10 13 13 15 14 13 11 11 11 11 10 11 11 11 11 11 11 11 12 12 13 14 16
8 9 9 8 9 9 8 8 8 8 8 8 7 6 7 7 9 9 8 6 6 5 4 3 4 2 0 1 1 1 1 1 1 1 3 1 3 3 3 3 1 3 3 3 4 5 3 7 6 8 8 5 5 6 6 6 7 6 6 7 8 9 10 12 12 12 13 13 13 12 10 9 10 10 10 10 9 9 10 11 10 10 11 13 15
9 9 9 8 8 8 9 9 8 8 7 7 7 8 8 8 7 7 8 6 6 7 7 6 1 3 3 1 1 0 2 0 2 1 2 1 1 1 1 1 3 3 3 2 2 3 4 4 6 6 8 6 6 6 6 7 8 8 11 15 10 6 7 8 10 11 12 12 11 11 10 10 8 8 8 8 9 9 9 10 10 9 9 10 14
8 8 8 9 8 8 8 8 8 8 8 8 9 7 6 5 7 8 6 7 8 8 6 6 9 5 6 5 1 1 1 1 1 0 1 1 2 2 1 4 4 4 3 3 2 2 4 4 5 5 6 6 6 5 5 6 5 7 7 13 15 5 4 6 7 8 9 9 10 9 9 8 8 9 7 6 8 9 9 9 10 10 10 10 11
6 8 8 8 8 9 8 8 8 8 7 7 6 7 9 9 7 7 8 7 7 6 6 8 7 6 5 4 3 3 1 1 1 1 2 0 5 1 1 3 1 4 4 2 2 2 2 3 3 4 4 5 5 4 5 6 6 6 7 13 13 11 4 3 4 5 6 7 7 7 7 6 6 6 6 6 8 5 4 8 9 10 9 9 10
6 6 7 8 8 8 8 9 9 8 7 8 7 7 7 8 9 9 7 8 6 7 8 6 7 5 5 6 6 3 1 1 1 1 0 1 4 2 1 1 2 1 2 3 4 3 2 2 3 3 3 4 4 4 4 5 6 5 7 11 11 14 5 4 4 5 5 5 5 5 4 4 5 5 5 3 5 9 9 7 7 6 6 7 8
7 7 8 9 8 8 8 8 8 8 8 8 8 8 8 8 7 6 8 9 8 7 5 4 6 6 5 7 8 8 9 7 6 4 4 2 0 5 2 3 2 4 1 3 4 4 3 2 3 3 3 3 3 3 4 4 4 6 11 10 11 11 13 3 3 3 4 6 6 5 3 3 3 3 4 4 4 4 5 7 7 9 10 9 8
6 7 7 7 7 7 6 7 8 8 9 8 7 8 7 7 7 7 7 7 5 7 6 6 6 6 6 6 6 6 5 6 5 7 7 6 4 5 2 1 2 5 6 7 3 3 4 4 4 4 3 3 3 2 3 3 4 7 7 9 10 10 12 9 2 3 5 7 7 6 6 4 3 3 3 4 5 5 6 6 6 7 6 7 8
7 7 7 8 7 7 7 8 7 7 7 7 7 7 7 7 8 7 7 8 9 8 8 9 8 8 8 6 5 6 7 4 5 6 4 3 3 3 0 1 2 4 2 1 2 5 4 5 4 4 3 3 3 3 2 2 3 5 7 5 9 9 10 12 9 2 5 5 5 4 4 4 4 3 2 4 5 6 6 7 7 7 7 7 7
9 10 10 9 8 9 9 9 7 7 7 7 7 7 7 8 7 8 8 8 6 8 9 7 6 7 4 6 6 7 6 5 5 5 6 4 2 4 2 1 2 3 3 2 2 2 2 2 3 4 3 4 4 3 3 3 2 4 6 4 6 8 8 10 10 12 2 4 2 1 1 1 2 3 3 3 3 4 5 7 8 7 7 7 7
9 9 7 9 9 8 7 7 7 7 6 6 7 7 7 6 7 8 7 6 7 7 7 7 8 7 6 7 7 6 6 6 6 6 6 6 6 5 3 5 4 1 2 2 3 3 7 4 2 3 5 4 4 4 4 4 3 3 3 3 4 6 8 8 10 10 12 4 4 2 2 2 1 2 3 3 3 3 3 2 1 4 6 7 7
7 6 7 8 8 9 8 8 7 7 7 7 7 7 7 7 7 6 7 5 7 7 7 6 8 7 8 6 5 7 6 6 6 6 6 6 4 4 3 4 4 7 3 4 2 2 1 2 2 1 2 4 4 3 3 2 2 3 2 2 4 5 7 8 9 10 10 12 8 6 4 4 3 4 3 3 4 4 5 3 2 4 6 8 9
7 6 8 7 8 9 8 8 8 8 8 8 8 8 8 8 8 7 8 7 7 8 6 7 7 7 6 7 8 7 6 5 5 6 6 4 4 4 5 6 6 3 3 2 4 2 2 3 1 1 0 2 2 1 2 3 3 2 1 1 2 3 5 7 8 8 8 9 9 12 7 5 6 6 6 5 4 4 6 5 4 6 8 9 9
7 7 7 8 8 9 8 8 8 8 8 8 8 8 8 8 8 8 8 7 7 5 6 7 7 6 6 5 5 6 4 5 6 5 5 6 6 6 6 5 6 7 5 5 7 4 3 2 3 3 1 2 1 2 2 4 4 2 3 2 2 3 5 7 7 7 7 6 8 9 10 7 8 9 9 8 7 7 6 6 6 5 7 8 8
7 6 7 7 8 8 8 8 8 8 7 8 8 8 8 8 7 8 6 7 7 8 7 7 7 6 7 7 6 7 5 6 5 5 5 5 6 6 6 5 6 6 7 5 4 5 4 3 4 4 3 2 2 2 3 3 4 3 3 3 3 4 6 6 6 6 5 6 6 8 10 9 7 10 11 11 10 10 9 9 8 8 9 9 8
7 7 8 8 8 8 8 8 8 7 8 7 8 8 8 8 8 7 7 7 7 8 7 7 6 7 7 8 8 8 5 4 5 5 6 5 5 6 6 6 6 6 5 6 8 11 3 5 3 3 2 3 2 2 4 4 2 5 4 4 4 4 4 5 6 7 7 6 5 6 9 10 9 9 9 12 14 12 12 11 10 10 11 11 9
7 8 8 8 8 9 9 8 9 8 8 8 8 8 8 8 7 8 7 8 8 8 7 7 6 6 7 8 8 7 5 5 6 5 5 6 5 6 5 6 6 5 6 7 8 9 6 1 2 3 1 0 2 3 5 4 4 4 4 4 4 4 4 5 4 5 7 6 5 6 7 7 8 9 9 7 8 12 15 14 13 12 10 8 7
8 9 9 8 8 8 8 9 9 9 9 9 8 8 9 8 8 7 8 9 8 8 7 8 7 7 7 8 7 6 6 7 6 6 6 5 5 6 6 7 7 7 6 7 8 6 9 3 4 1 2 2 3 1 4 4 5 1 4 5 4 4 5 5 6 6 6 7 7 7 6 8 9 9 10 9 6 6 7 10 10 9 9 10 10
7 8 9 8 8 8 8 9 9 8 9 9 8 9 9 10 10 9 9 9 10 9 9 9 8 7 7 8 8 6 5 6 6 6 5 6 5 7 7 6 7 6 6 7 6 7 7 7 5 5 4 3 6 4 3 3 3 1 3 5 5 3 3 4 5 5 6 9 9 7 6 7 10 10 10 10 10 7 7 7 8 8 9 10 12
8 7 7 8 7 8 8 8 8 8 8 8 8 9 10 10 9 10 9 9 9 9 10 9 8 8 9 8 7 6 6 7 6 5 5 5 6 7 6 7 7 7 7 6 8 8 5 6 3 5 2 3 5 4 3 1 2 3 3 4 3 4 3 3 4 5 6 7 8 10 10 10 11 11 11 10 10 10 7 7 8 8 9 10 11
7 7 6 6 7 7 8 8 8 7 8 8 9 8 8 8 9 9 9 9 9 9 9 9 8 9 8 9 7 7 7 8 5 6 6 7 7 6 8 7 7 6 5 6 7 6 6 8 6 2 2 3 2 1 2 2 3 3 3 4 4 4 4 4 4 6 6 8 11 12 12 12 12 12 12 11 12 11 10 8 8 8 10 11 11
7 7 8 7 8 8 7 8 8 8 8 8 9 9 9 8 7 8 8 8 8 8 7 7 7 8 8 8 7 7 8 9 9 7 7 8 6 7 7 6 7 5 5 5 5 5 6 9 7 6 2 6 5 1 2 3 3 4 6 6 3 3 4 6 7 4 3 4 6 7 9 11 12 13 12 12 12 12 12 12 10 10 11 11 12
8 8 6 7 6 7 7 7 7 7 7 7 7 7 7 7 8 8 7 7 7 7 6 7 7 7 7 6 6 7 8 9 8 7 7 6 7 7 8 7 5 5 5 6 5 5 6 8 7 6 6 3 3 8 2 1 2 3 4 6 6 4 3 5 7 4 4 6 7 11 10 8 8 7 10 11 12 13 14 13 14 14 13 13 13
8 8 8 8 6 6 7 7 7 7 7 7 6 7 7 7 7 7 7 7 7 6 5 6 6 7 7 6 6 7 8 8 7 6 7 7 6 7 7 6 5 6 7 6 6 7 7 7 8 8 5 4 2 4 2 1 4 4 4 4 8 9 6 3 5 7 3 5 7 7 7 8 10 12 13 13 14 14 16 15 16 16 16 15 14
6 6 6 7 7 6 5 5 5 5 7 7 7 8 7 7 7 7 7 7 7 7 6 5 5 5 4 4 5 5 7 9 10 8 8 8 7 7 6 6 6 7 6 6 7 7 7 7 8 6 6 5 6 5 5 6 7 10 0 4 6 6 5 5 7 5 5 5 5 5 6 6 6 7 7 8 10 14 15 16 13 16 17 17 16
5 5 5 4 6 7 6 5 5 5 5 5 7 12 10 8 7 6 5 6 6 5 5 4 4 4 4 4 4 8 10 10 10 9 9 10 10 8 7 7 7 6 6 6 6 7 6 7 8 7 7 8 8 6 6 5 4 3 4 2 5 7 7 6 7 6 6 5 5 8 8 4 6 7 7 9 9 9 8 9 10 12 16 18 19
6 5 6 6 5 6 7 7 6 6 6 6 10 11 12 11 7 6 7 6 5 5 5 5 5 4 4 3 3 4 5 6 5 8 9 10 10 11 9 9 9 8 6 6 6 5 6 7 5 4 6 8 8 5 4 5 3 5 6 4 7 5 7 7 11 6 1 7 4 4 8 6 7 8 8 8 7 8 7 10 14 17 18 18 19
5 5 6 6 6 5 5 5 6 6 6 6 10 10 11 12 10 7 6 6 6 5 5 5 5 4 4 4 3 3 3 4 4 4 5 7 9 9 9 9 9 10 9 8 7 6 6 6 6 8 6 8 8 4 5 3 5 5 5 6 6 6 7 7 5 7 2 3 5 3 8 3 3 6 7 8 8 8 9 11 15 18 19 20 20
5 6 6 6 6 5 6 6 4 3 3 4 7 9 10 11 11 8 6 5 5 5 5 5 5 4 4 4 3 3 3 5 4 4 4 4 6 7 8 8 9 10 11 11 11 8 6 7 7 7 8 5 5 7 5 4 3 5 4 5 5 6 7 8 8 7 7 3 1 3 8 5 4 4 7 7 7 7 8 12 16 18 19 19 20
6 6 6 6 6 6 6 7 6 4 3 5 7 8 9 10 11 8 5 6 5 5 5 5 4 4 4 4 4 3 1 1 1 2 2 2 1 1 1 2 3 4 7 10 11 11 7 6 6 8 6 5 8 5 5 4 3 5 5 7 5 7 7 10 9 8 2 4 5 4 9 3 4 6 8 6 7 9 8 10 14 15 18 19 19
8 9 9 8 6 7 7 7 7 6 3 6 7 8 9 10 12 8 5 5 5 4 4 4 4 3 3 4 3 2 2 2 1 3 3 3 2 1 1 2 3 3 3 4 4 4 5 6 7 8 7 6 6 6 5 4 7 7 6 8 6 6 5 3 3 4 5 3 4 2 11 1 4 4 7 5 6 9 7 8 13 15 18 18 18
6 7 6 8 9 8 7 7 8 8 5 10 10 10 10 11 10 6 6 6 6 6 5 4 5 4 4 4 4 3 2 0 1 2 3 2 2 1 1 2 3 3 3 5 6 5 6 6 6 7 7 7 8 6 6 6 5 5 5 5 2 3 5 7 9 3 6 5 8 8 7 8 6 7 7 5 5 8 6 6 8 14 17 18 18
9 8 8 7 7 8 7 7 9 7 7 9 12 12 12 12 8 7 7 7 7 7 6 5 4 4 4 3 4 4 3 2 2 3 2 3 1 2 2 2 3 3 5 4 5 8 10 11 11 11 11 11 11 11 10 11 7 5 4 5 7 4 7 10 9 6 6 6 6 8 7 11 4 6 8 4 7 8 6 6 7 11 15 16 18
9 7 7 8 7 6 8 7 7 9 7 9 13 13 13 13 10 9 8 9 8 7 6 5 5 6 7 8 6 5 4 2 1 1 2 2 3 3 3 3 3 4 4 4 3 5 7 7 7 8 9 9 10 10 10 9 9 6 5 8 5 3 8 7 9 7 5 3 5 8 3 9 1 4 5 3 4 4 5 6 8 8 11 12 17
8 7 8 9 9 8 8 8 10 10 8 9 14 14 13 12 9 7 7 7 8 6 6 6 6 6 6 7 9 7 5 5 8 7 6 2 2 2 3 2 3 3 3 2 3 3 2 1 3 2 3 4 4 3 5 8 8 7 6 7 5 6 8 7 7 7 8 5 5 10 7 6 3 4 4 4 8 5 4 5 7 7 6 6 8
Wind_Direction
190 197 173 199 200 199 196 211 200 229 178 221 203 243 255 226 144 134 128 115 104 97 90 49 33 27 27 348 336 340 337 341 339 334 327 326 331 337 342 347 345 355 358 4 1 355 2 14 19 14 15 26 29 42 42 36 1 338 3 37 171 166 164 165 154 137 121 118 124 158 187 237 232 178 172 167 170 173 174 159 127 134 150 186 196
191 181 181 202 195 200 198 208 206 203 171 217 212 201 220 146 119 129 126 127 112 119 100 73 29 17 18 357 330 331 325 334 339 333 323 330 337 342 341 347 344 348 357 5 5 1 0 8 21 19 21 20 33 36 47 24 22 359 316 224 174 167 170 159 135 105 99 98 144 153 177 218 231 178 167 163 163 169 168 158 138 139 158 168 165
183 181 190 192 192 190 208 199 209 211 185 223 186 199 187 187 177 161 151 135 117 86 122 87 37 15 4 353 326 324 330 335 334 327 329 335 343 345 342 345 342 346 348 0 6 4 4 5 16 24 27 23 29 34 32 32 23 3 302 274 232 222 211 176 124 110 109 100 76 129 170 185 232 174 164 161 166 167 169 161 151 149 143 141 158
180 180 186 189 191 193 199 186 216 201 191 212 196 185 176 153 117 114 118 119 113 82 63 95 54 7 353 350 335 328 331 337 336 329 331 338 344 351 348 342 340 349 350 354 4 7 7 6 11 24 34 26 33 34 30 20 8 332 284 254 238 223 233 205 116 77 70 89 130 171 163 207 189 174 168 162 157 160 165 160 159 151 148 145 152
185 182 186 187 187 186 195 202 206 197 192 201 161 133 117 115 92 103 100 103 103 79 71 73 55 354 357 342 341 324 328 336 336 332 337 341 352 350 349 347 342 345 353 354 2 4 8 7 11 14 26 32 31 40 35 25 6 337 299 241 226 227 190 73 95 85 87 80 117 105 344 205 171 159 158 149 146 146 144 151 154 145 143 148 138
176 184 179 181 185 189 193 203 203 192 187 166 157 153 136 128 138 117 123 122 115 90 79 60 4 342 6 342 330 316 321 329 335 324 327 348 347 354 350 350 349 344 341 353 1 360 2 8 11 13 16 28 30 38 43 36 27 9 5 35 54 52 65 76 62 84 113 94 129 138 188 198 147 141 139 138 138 134 135 138 137 131 136 142 136
181 176 183 180 184 191 195 203 188 177 176 189 162 156 150 155 147 125 107 97 101 80 95 97 52 18 338 341 335 322 316 323 329 331 341 342 352 356 350 338 329 347 345 344 355 360 1 4 11 13 13 19 31 34 39 42 43 48 49 48 76 76 78 78 82 87 102 108 159 149 187 164 129 125 127 128 127 125 129 132 127 117 122 139 137
180 175 179 185 187 191 198 191 179 164 184 169 150 158 162 150 175 150 130 130 123 75 64 103 56 12 339 341 334 343 323 327 333 328 331 336 357 355 353 353 353 350 344 349 349 356 4 4 10 15 14 9 30 40 40 50 47 45 62 79 95 88 76 86 96 116 136 159 150 138 149 122 117 118 125 124 122 116 113 125 120 97 103 116 125
181 179 180 186 188 190 192 187 170 169 173 171 171 167 157 156 166 190 156 157 146 130 88 85 72 353 335 344 345 350 336 326 320 327 326 2 356 356 356 354 348 351 353 349 350 348 2 2 6 12 15 10 10 29 43 49 59 62 66 74 87 106 119 134 134 111 100 102 109 111 98 98 98 102 114 122 119 111 111 114 108 107 102 95 100
180 180 187 186 185 185 184 178 167 165 171 166 183 161 162 159 159 136 140 135 151 152 159 120 82 21 348 347 327 353 327 319 317 325 342 357 3 351 348 337 355 354 353 350 349 352 351 359 5 8 9 10 7 14 21 38 49 57 65 75 82 83 93 97 101 103 101 94 91 98 99 97 100 107 110 120 122 116 117 117 117 115 114 117 117
181 180 185 182 181 184 180 178 167 167 167 171 163 160 161 167 159 134 81 108 160 174 160 144 99 44 343 301 318 311 305 306 314 318 340 343 346 338 340 0 356 347 358 351 350 352 355 351 353 358 356 1 2 9 17 24 46 50 59 67 73 78 76 80 78 78 83 92 97 97 99 98 99 101 105 112 122 122 118 122 124 127 129 134 139
181 181 185 182 181 183 181 170 171 164 167 170 175 171 172 168 168 151 136 73 60 124 131 123 72 49 334 310 285 272 305 327 319 317 326 339 347 338 356 349 5 350 357 346 351 356 360 355 355 356 354 353 359 6 8 19 29 44 52 63 71 73 74 72 76 85 88 89 93 94 93 90 92 96 100 107 113 119 126 131 132 135 136 135 140
181 176 186 183 182 175 173 176 171 171 175 187 180 180 177 170 159 149 151 136 111 122 155 113 104 315 342 299 307 251 249 316 307 314 322 304 327 353 352 1 358 1 349 333 355 357 354 355 358 356 359 358 355 357 4 10 18 38 47 60 68 71 72 73 78 83 86 88 87 87 93 95 93 95 104 105 111 116 119 123 128 130 136 140 143
178 179 183 180 175 177 181 179 172 180 185 176 170 169 163 155 150 139 199 159 181 175 188 119 48 178 321 323 328 320 303 329 314 300 313 321 334 349 18 7 354 347 338 338 359 2 359 354 0 359 359 1 357 351 356 0 9 28 48 46 60 75 76 78 82 84 87 87 90 89 87 90 96 104 104 102 104 110 113 116 120 126 133 141 143
178 181 178 184 181 175 185 175 177 173 168 170 166 169 173 171 172 167 176 48 121 183 182 166 159 135 139 41 327 8 330 344 321 277 297 304 328 17 4 7 340 346 336 334 1 360 358 354 0 4 359 1 357 352 348 352 358 12 41 62 57 65 73 76 80 86 87 88 87 90 94 97 102 103 106 109 109 111 115 117 119 131 134 139 142
178 176 181 184 180 183 174 175 180 178 176 171 174 178 176 175 176 179 155 165 192 189 206 185 133 139 266 202 221 93 326 332 300 283 270 287 340 331 356 343 337 348 358 7 346 331 343 358 4 0 2 1 356 350 352 352 357 6 6 54 72 70 73 89 88 84 86 90 93 95 99 102 107 110 112 113 116 116 115 119 124 128 133 137 139
177 182 183 184 184 179 175 180 174 182 176 177 178 186 184 181 178 171 182 180 191 168 200 187 204 235 135 100 31 15 224 244 355 286 344 260 282 341 323 351 356 346 349 334 329 329 332 358 359 358 353 358 5 358 357 355 355 354 353 23 70 88 81 77 77 82 83 84 86 92 97 94 101 108 107 110 114 117 117 116 124 129 134 143 143
182 185 190 181 182 181 178 172 177 177 182 185 179 163 178 180 187 180 190 196 159 150 195 220 206 177 151 124 161 167 281 270 68 285 326 212 307 304 291 307 340 330 326 331 349 340 355 330 339 328 353 348 343 359 359 351 350 350 3 349 51 64 79 82 85 83 81 82 82 81 74 87 94 104 107 111 111 112 115 124 131 131 140 139 136
187 186 187 184 181 179 178 179 178 178 180 172 176 184 182 189 180 186 192 165 140 183 191 184 135 251 187 168 132 143 144 73 278 4 355 322 311 302 276 328 326 319 303 300 319 336 337 342 330 327 321 340 3 354 359 350 349 354 353 359 358 62 70 76 89 94 92 87 82 86 94 99 101 94 99 100 117 117 122 129 133 137 139 135 136
184 186 184 183 178 181 181 180 178 181 174 184 185 182 171 182 186 191 171 178 182 189 184 164 179 212 189 201 181 65 94 84 132 204 188 300 311 320 261 287 314 279 253 269 293 308 319 338 346 336 310 343 2 7 358 349 354 354 354 349 354 24 51 78 78 84 93 96 96 93 86 84 94 114 114 118 125 133 137 141 142 144 143 144 145
182 182 184 183 183 183 181 181 181 181 181 182 186 174 178 174 180 183 187 191 194 191 154 192 192 188 129 194 169 194 85 58 95 86 163 206 281 254 299 320 295 289 310 286 278 260 272 294 306 305 317 324 347 358 354 349 359 356 347 349 353 356 47 53 75 78 87 96 95 96 95 91 98 89 105 125 130 107 134 137 150 151 151 154 155
187 184 182 189 189 185 182 184 185 179 179 186 179 176 179 183 186 186 185 191 198 187 197 183 193 185 185 154 170 151 168 282 254 148 336 202 249 278 237 356 343 290 329 338 330 287 267 277 299 305 312 307 311 348 1 351 355 353 340 340 352 352 16 71 77 78 87 91 94 97 103 109 111 119 114 110 118 151 158 147 141 160 158 168 166
182 189 191 188 190 187 184 187 183 179 182 180 184 182 185 184 181 182 188 192 192 197 206 182 180 186 190 174 187 181 187 191 202 195 190 204 327 284 291 219 210 318 288 313 297 285 276 245 255 283 278 292 304 329 348 348 345 345 339 351 352 353 354 33 80 112 97 83 66 64 94 127 139 142 157 151 151 145 151 153 158 158 172 194 178
184 187 194 190 188 185 183 181 182 183 189 183 181 185 177 171 173 183 195 199 187 188 198 194 187 193 204 201 200 190 200 200 175 172 183 212 186 251 272 295 274 232 291 316 272 269 284 261 237 226 240 256 277 292 313 332 329 343 351 347 351 352 353 355 52 72 101 99 89 76 82 88 132 163 196 198 191 184 177 182 184 190 186 187 191
193 190 198 189 180 179 183 186 190 193 184 177 184 175 169 175 180 185 188 189 193 190 194 206 191 191 206 205 193 191 214 194 153 170 183 141 158 269 271 149 250 303 294 2 312 305 238 241 240 233 214 224 257 262 277 310 313 332 355 339 347 352 351 354 358 121 125 96 78 86 70 85 94 108 164 205 215 215 207 203 207 210 207 205 198
187 197 193 183 185 190 186 192 188 180 179 181 174 176 172 178 182 186 193 196 183 192 205 204 198 211 186 186 205 208 219 182 180 152 160 148 183 203 233 299 172 253 289 351 316 353 314 261 240 230 226 227 233 225 259 262 299 318 348 341 333 348 345 347 346 343 289 126 142 44 357 72 116 114 115 158 177 205 217 225 226 227 220 209 207
192 199 177 182 189 183 183 182 179 177 176 176 176 174 177 176 184 194 192 182 189 191 205 197 201 204 201 204 207 215 218 190 174 200 172 192 181 174 155 282 327 6 333 300 323 216 240 297 242 217 221 224 218 220 223 227 234 277 319 335 325 327 344 341 344 344 345 293 202 209 240 254 190 160 130 121 111 102 87 58 21 229 224 214 210
193 173 183 178 181 183 182 184 178 176 179 180 175 175 176 179 185 185 197 177 186 192 205 197 211 206 206 204 193 226 212 193 195 196 196 196 186 154 145 153 203 284 345 321 341 294 226 244 317 248 233 221 241 230 255 236 242 247 299 334 321 325 330 341 339 343 344 349 330 272 215 220 220 210 205 151 112 122 114 102 132 154 183 187 201
183 178 175 183 181 181 182 181 178 179 177 181 180 180 177 182 184 187 197 186 186 197 194 198 213 204 202 198 210 219 219 192 195 203 198 183 187 185 182 188 167 197 284 297 281 250 295 203 208 299 357 307 274 263 256 261 272 272 270 277 308 304 322 328 336 334 348 342 338 334 275 239 232 218 221 209 181 151 146 147 168 194 195 197 205
179 181 174 179 182 180 181 182 180 175 182 181 182 182 176 186 190 194 197 178 189 193 197 199 208 196 202 201 206 223 210 185 207 203 191 192 187 193 200 196 167 193 197 238 273 212 260 275 211 258 342 339 336 293 211 257 260 251 248 260 267 284 302 312 316 325 335 342 335 327 320 245 238 244 234 222 221 210 195 187 187 211 222 217 222
175 170 176 178 179 182 182 182 176 181 179 182 180 181 180 185 189 196 188 178 186 198 202 194 205 186 198 210 203 221 202 204 198 193 195 185 199 192 199 183 193 190 197 196 254 276 191 258 262 242 254 318 325 303 285 250 244 242 252 262 260 266 290 293 296 305 313 321 327 322 318 318 268 247 244 247 233 234 234 232 234 238 237 242 244
183 178 177 180 180 179 183 178 179 177 179 183 178 181 180 191 186 193 191 181 190 199 203 201 191 191 197 208 210 216 202 189 196 198 197 198 189 191 194 193 199 199 189 192 219 254 211 211 253 284 253 255 319 297 282 281 255 232 230 238 243 255 268 266 280 282 289 294 314 316 313 312 313 308 290 257 246 242 237 231 234 237 246 244 248
178 177 182 184 181 183 178 179 179 180 182 182 182 177 183 188 191 194 186 185 192 204 198 204 196 190 201 209 214 214 182 198 203 196 195 196 191 199 191 186 201 196 186 203 226 257 280 209 234 261 312 204 301 211 250 281 290 271 250 240 231 236 248 256 268 277 279 287 296 299 300 305 311 310 306 317 293 258 247 239 237 233 231 252 282
179 183 186 184 183 179 178 182 183 183 186 185 180 177 183 187 195 192 190 188 196 202 195 208 197 201 198 208 215 202 188 205 196 201 197 186 188 194 202 194 208 204 196 195 230 238 256 304 291 257 301 167 260 175 208 247 273 299 269 264 249 232 244 248 254 257 263 269 274 275 277 284 291 292 299 299 283 297 272 261 266 252 212 213 232
190 187 187 184 182 179 181 184 183 185 187 187 181 182 187 188 192 195 194 191 194 195 198 207 200 194 200 208 214 193 182 202 206 205 182 194 186 197 208 200 211 208 193 204 217 242 247 257 237 263 222 217 214 242 225 249 268 266 268 266 261 265 242 246 257 264 259 257 258 255 252 269 275 277 282 286 293 283 282 283 277 267 244 217 214
186 198 188 183 178 179 183 185 186 186 185 184 181 187 189 189 193 196 194 197 197 198 200 203 198 191 203 205 214 189 187 203 207 194 190 187 191 204 210 210 209 212 197 195 213 229 249 255 254 222 238 201 256 256 237 266 261 279 239 280 289 279 279 267 248 257 256 254 257 262 266 267 268 269 268 273 277 280 277 278 280 274 260 236 222
190 182 191 180 177 178 184 185 184 186 186 183 184 188 192 193 194 194 196 198 201 202 203 202 197 197 200 206 203 185 187 206 204 190 188 197 203 198 213 209 208 216 195 198 217 218 243 252 267 249 289 264 217 194 169 237 297 287 285 258 264 278 291 267 258 247 251 257 264 263 260 258 258 258 260 260 260 264 268 264 261 265 266 254 236
184 186 181 184 180 183 185 185 185 187 183 186 188 188 190 191 194 197 197 200 202 202 203 202 200 199 202 205 195 185 191 201 211 202 193 203 195 204 213 209 209 199 204 218 219 222 230 255 248 279 266 279 302 263 174 172 234 291 296 283 285 247 250 278 258 251 236 237 246 255 253 256 256 258 258 259 264 265 259 256 252 248 247 252 248
179 183 186 181 189 178 184 177 184 182 184 185 187 187 187 187 192 193 197 199 200 202 202 202 203 204 205 200 189 190 199 206 209 200 196 199 194 210 211 209 195 183 199 214 205 215 229 248 265 242 262 262 232 277 349 76 169 215 256 300 305 262 212 226 278 261 220 243 247 247 249 249 254 253 252 254 253 252 256 255 250 245 242 239 239
182 182 178 179 180 176 177 182 184 177 177 180 184 186 184 185 186 195 194 195 199 201 203 203 201 205 206 199 193 194 203 207 204 200 182 198 192 212 217 192 179 182 201 203 195 207 219 233 242 259 235 241 256 258 314 9 313 282 203 211 259 274 266 242 228 259 250 204 253 259 255 255 255 255 256 255 250 247 243 245 246 244 243 241 239
177 177 173 169 162 171 168 173 172 170 175 184 183 180 181 185 184 191 191 193 194 197 203 206 205 207 205 201 195 200 206 212 207 198 194 192 182 205 216 182 187 187 202 199 204 201 220 224 250 257 267 257 239 231 249 247 230 251 303 159 251 268 279 293 272 242 234 233 258 259 256 225 249 246 243 248 246 245 247 243 247 247 245 241 239
163 154 147 149 157 164 163 160 157 164 179 183 188 186 184 179 183 185 184 192 190 192 192 197 208 205 207 200 208 207 210 214 214 211 205 205 203 200 194 180 188 187 196 203 204 209 207 220 235 241 255 257 250 227 234 235 247 293 295 244 256 282 302 275 269 245 209 194 235 259 257 220 212 251 235 238 245 239 244 243 239 237 241 240 239
152 150 144 146 156 160 163 162 164 175 182 187 189 187 187 178 171 173 181 188 184 182 184 186 200 203 209 204 205 218 220 224 222 220 218 215 220 221 214 189 188 183 186 201 217 196 201 222 229 226 239 259 263 254 236 242 222 217 230 233 242 269 270 286 288 317 188 181 225 247 272 227 191 230 239 241 245 246 232 236 242 242 243 244 244
142 138 145 154 151 149 143 152 162 175 183 184 181 186 184 179 171 172 172 172 175 176 175 181 185 181 191 193 199 191 199 205 201 208 215 220 224 229 232 224 210 209 200 190 201 203 201 213 220 225 219 234 255 243 250 217 245 236 227 229 229 231 249 254 259 259 266 154 189 228 266 255 190 223 247 242 236 237 239 236 239 243 244 244 246
134 138 144 135 141 142 141 141 136 128 130 170 181 181 183 178 172 160 162 162 161 171 167 170 175 178 176 175 188 192 208 205 206 194 190 202 211 221 228 229 227 219 224 225 218 213 189 204 214 234 215 228 240 244 216 208 183 232 211 226 224 231 228 243 247 261 260 167 190 238 264 254 183 225 225 246 244 244 244 245 243 243 244 245 245
131 123 124 127 132 132 127 119 112 103 97 120 141 160 168 169 164 149 151 148 146 151 159 161 165 172 175 176 173 194 238 188 189 187 183 193 189 198 252 249 243 250 240 240 242 245 232 214 206 233 232 191 232 231 227 198 199 231 227 244 211 232 227 232 233 237 270 131 219 291 276 238 205 246 252 231 225 245 238 238 240 243 246 248 248
132 126 134 120 119 118 113 112 103 88 62 94 110 120 136 150 154 140 131 125 121 108 104 113 126 138 142 142 145 155 143 161 172 173 175 187 174 188 215 245 234 234 229 236 234 228 231 227 231 241 249 238 238 241 243 216 221 229 226 244 234 238 247 261 272 230 247 198 206 200 267 247 192 239 257 241 229 243 233 240 238 243 246 247 247
102 106 93 102 107 106 110 108 99 85 66 78 88 92 106 116 107 105 112 107 104 97 91 95 102 107 115 120 122 113 123 122 200 182 187 149 153 178 218 268 281 267 251 228 226 218 212 216 219 229 238 243 244 240 239 241 247 245 253 261 256 241 260 261 265 176 222 200 195 207 257 257 172 219 253 231 244 256 242 237 244 240 244 246 247
97 65 89 80 102 107 99 93 93 83 66 70 80 87 101 109 96 98 103 100 93 93 86 89 91 87 86 94 100 109 104 71 351 335 310 148 143 191 219 241 245 257 269 273 242 236 234 232 232 232 239 248 257 261 258 249 242 242 264 276 260 237 257 266 269 256 247 174 218 209 236 265 162 200 256 222 228 247 240 231 237 237 237 242 245
96 97 98 85 66 72 83 78 82 86 69 63 74 76 82 92 99 102 105 102 98 97 99 89 89 83 80 87 89 91 92 105 184 169 253 170 184 203 209 219 233 244 254 236 239 249 250 251 248 245 245 248 252 258 262 262 256 232 209 249 261 232 259 258 272 270 278 178 210 191 207 247 110 213 249 279 279 236 236 224 229 236 236 242 247
98 97 91 89 79 63 66 76 73 78 74 62 67 72 72 77 82 90 98 100 99 94 98 91 80 87 74 64 68 75 72 72 73 70 60 104 179 210 220 227 251 260 262 264 265 268 280 295 298 287 285 246 237 228 245 252 256 246 223 240 255 249 262 268 271 286 284 260 198 177 215 258 217 239 203 312 278 237 181 213 220 226 235 233 250